User: anonymous   Login
Location: Bonny Doon Airfield
(37.0704°N, 122.1252°W)
Time: 14:43:11
(UTC-08:00)
Language:

AIST 2D - Orbit

View from above orbital plane
View from above orbital plane
View from above satellite
View from above satellite

Ground track
Ground track

The orbit data is extracted from the following two-line orbital elements,

1 41465U 16026B   18021.54064906  .00001116  00000-0  38211-4 0  9999
2 41465  97.2355 284.5493 0012125 151.7580 331.6120 15.32237110 96888
Epoch (UTC): 21 January 2018 12:58:32
Eccentricity: 0.0012125
inclination: 97.2355°
perigee height: 461 km
apogee height: 477 km
right ascension of ascending node: 284.5493°
argument of perigee: 151.7580°
revolutions per day: 15.32237110
mean anomaly at epoch: 331.6120°
orbit number at epoch: 9688

The dashed part of the orbit path shows where the satellite is in the earth's shadow,  

DLR